When you browse on this site, cookies collect data to enhance your experience and personalize the content and advertising you see.
Visit our Privacy Policy to learn more. By continuing to use the site, you agree to this use of cookies and data.
  • In Norway
  • List of Countries
  • For 7 days
  • Water Temperature
  • Satellite Maps
  • Weather Map
  • Weather Widgets
  • user-avatar
    Login

    Hourly Weather Newcastle

    Today, 25 June, Tuesday

    Time Temperature Precipitation Wind Pressure Humidity
    00:00 +12°C° 0.3 mm 3 mps 772 mmHg 93%
    01:00 +11°C° 0.3 mm 3 mps 772 mmHg 93%
    02:00 +11°C° 0.3 mm 3 mps 772 mmHg 93%
    03:00 +12°C° 0.3 mm 3 mps 772 mmHg 93%
    04:00 +12°C° 0.3 mm 3 mps 772 mmHg 93%
    05:00 +12°C° 0.1 mm 3 mps 772 mmHg 92%
    06:00 +12°C° 0.1 mm 3 mps 773 mmHg 92%
    07:00 +11°C° 0.1 mm 3 mps 773 mmHg 91%
    08:00 +13°C° 0.1 mm 3 mps 773 mmHg 87%
    09:00 +14°C° 0.1 mm 4 mps 773 mmHg 83%
    10:00 +17°C° 0.1 mm 4 mps 773 mmHg 79%
    11:00 +17°C° 0.1 mm 4 mps 773 mmHg 72%
    12:00 +18°C° 0.1 mm 4 mps 772 mmHg 64%
    13:00 +19°C° 0.1 mm 4 mps 772 mmHg 57%
    14:00 +18°C° 0.5 mm 4 mps 772 mmHg 66%
    15:00 +17°C° 0.5 mm 4 mps 772 mmHg 76%
    16:00 +15°C° 0.5 mm 5 mps 772 mmHg 86%
    17:00 +14°C° 0.3 mm 4 mps 772 mmHg 87%
    18:00 +14°C° 0.3 mm 4 mps 773 mmHg 89%
    19:00 +13°C° 0.3 mm 4 mps 773 mmHg 90%
    20:00 +13°C° 0.3 mm 4 mps 773 mmHg 91%
    21:00 +13°C° 0.3 mm 4 mps 773 mmHg 92%
    22:00 +12°C° 0.3 mm 4 mps 774 mmHg 92%
    23:00 +12°C° 0.5 mm 4 mps 774 mmHg 93%

    Tomorrow, 26 June, Wednesday

    Time Temperature Precipitation Wind Pressure Humidity
    00:00 +12°C° 0.5 mm 4 mps 773 mmHg 93%
    01:00 +12°C° 0.5 mm 4 mps 773 mmHg 93%
    02:00 +12°C° 0.4 mm 4 mps 773 mmHg 93%
    03:00 +12°C° 0.4 mm 4 mps 774 mmHg 93%
    04:00 +12°C° 0.4 mm 4 mps 774 mmHg 92%
    05:00 +13°C° 0.2 mm 3 mps 774 mmHg 91%
    06:00 +13°C° 0.2 mm 3 mps 774 mmHg 90%
    07:00 +13°C° 0.2 mm 3 mps 775 mmHg 89%
    08:00 +14°C° 0.1 mm 3 mps 775 mmHg 84%
    09:00 +16°C° 0.1 mm 3 mps 775 mmHg 79%
    10:00 +17°C° 0.1 mm 3 mps 775 mmHg 74%
    11:00 +17°C° 0.1 mm 3 mps 775 mmHg 70%
    12:00 +18°C° 0.1 mm 3 mps 774 mmHg 66%
    13:00 +18°C° 0.1 mm 3 mps 774 mmHg 61%
    14:00 +18°C° 0.2 mm 3 mps 774 mmHg 67%
    15:00 +17°C° 0.2 mm 4 mps 774 mmHg 73%
    16:00 +15°C° 0.2 mm 4 mps 774 mmHg 79%
    17:00 +15°C° 0.3 mm 4 mps 774 mmHg 83%
    18:00 +14°C° 0.3 mm 4 mps 774 mmHg 87%
    19:00 +13°C° 0.3 mm 4 mps 775 mmHg 91%
    20:00 +13°C° 0.2 mm 4 mps 775 mmHg 91%
    21:00 +13°C° 0.2 mm 4 mps 775 mmHg 91%
    22:00 +13°C° 0.2 mm 4 mps 775 mmHg 91%
    23:00 +13°C° 0.1 mm 4 mps 775 mmHg 92%

    Day after tomorrow, 27 June, Thursday

    Time Temperature Precipitation Wind Pressure Humidity
    00:00 +12°C° 0.1 mm 3 mps 775 mmHg 92%
    01:00 +12°C° 0.1 mm 3 mps 775 mmHg 92%
    02:00 +12°C° 0.2 mm 3 mps 775 mmHg 91%
    03:00 +13°C° 0.2 mm 2 mps 774 mmHg 91%
    04:00 +13°C° 0.2 mm 2 mps 774 mmHg 90%
    05:00 +13°C° 0.2 mm 2 mps 775 mmHg 90%
    06:00 +13°C° 0.2 mm 2 mps 775 mmHg 90%
    07:00 +13°C° 0.2 mm 2 mps 775 mmHg 90%
    08:00 +14°C° 0.1 mm 2 mps 775 mmHg 89%
    09:00 +14°C° 0.1 mm 2 mps 775 mmHg 87%
    10:00 +14°C° 0.1 mm 3 mps 776 mmHg 86%
    11:00 +16°C° 0.2 mm 3 mps 775 mmHg 81%
    12:00 +17°C° 0.2 mm 3 mps 774 mmHg 76%
    13:00 +18°C° 0.2 mm 3 mps 774 mmHg 72%
    14:00 +18°C° 0.1 mm 2 mps 774 mmHg 72%
    15:00 +18°C° 0.1 mm 2 mps 773 mmHg 73%
    16:00 +17°C° 0.1 mm 2 mps 773 mmHg 74%
    17:00 +16°C° 0 mm 2 mps 774 mmHg 78%
    18:00 +15°C° 0 mm 2 mps 774 mmHg 83%
    19:00 +13°C° 0 mm 2 mps 774 mmHg 87%
    20:00 +13°C° 0 mm 2 mps 774 mmHg 88%
    21:00 +12°C° 0 mm 2 mps 775 mmHg 90%
    22:00 +12°C° 0 mm 2 mps 775 mmHg 91%
    23:00 +12°C° 0.1 mm 2 mps 775 mmHg 92%

    28 June, Friday

    Time Temperature Precipitation Wind Pressure Humidity
    00:00 +10°C° 0.1 mm 2 mps 775 mmHg 92%
    01:00 +11°C° 0.1 mm 1 mps 774 mmHg 93%
    02:00 +11°C° 0 mm 1 mps 774 mmHg 94%
    03:00 +11°C° 0 mm 1 mps 774 mmHg 94%
    04:00 +11°C° 0 mm 1 mps 774 mmHg 94%
    05:00 +11°C° 0 mm 1 mps 774 mmHg 94%
    06:00 +11°C° 0 mm 1 mps 774 mmHg 94%
    07:00 +10°C° 0 mm 1 mps 775 mmHg 94%
    08:00 +13°C° 0 mm 1 mps 774 mmHg 87%
    09:00 +15°C° 0 mm 1 mps 774 mmHg 79%
    10:00 +18°C° 0 mm 1 mps 774 mmHg 72%
    11:00 +19°C° 0 mm 1 mps 774 mmHg 67%
    12:00 +20°C° 0 mm 1 mps 773 mmHg 62%
    13:00 +20°C° 0 mm 2 mps 772 mmHg 57%
    14:00 +19°C° 0 mm 2 mps 772 mmHg 60%
    15:00 +19°C° 0 mm 3 mps 772 mmHg 63%
    16:00 +18°C° 0 mm 3 mps 771 mmHg 67%
    17:00 +16°C° 0 mm 3 mps 772 mmHg 73%
    18:00 +14°C° 0 mm 3 mps 772 mmHg 78%
    19:00 +12°C° 0 mm 3 mps 772 mmHg 84%
    20:00 +12°C° 0 mm 3 mps 772 mmHg 87%
    21:00 +11°C° 0 mm 3 mps 772 mmHg 90%
    22:00 +11°C° 0 mm 3 mps 773 mmHg 92%
    23:00 +11°C° 0 mm 3 mps 772 mmHg 93%

    29 June, Saturday

    Time Temperature Precipitation Wind Pressure Humidity
    00:00 +11°C° 0 mm 3 mps 772 mmHg 94%
    01:00 +10°C° 0 mm 3 mps 772 mmHg 94%
    02:00 +10°C° 0 mm 3 mps 771 mmHg 95%
    03:00 +10°C° 0 mm 2 mps 771 mmHg 95%
    04:00 +9°C° 0 mm 2 mps 771 mmHg 95%
    05:00 +9°C° 0 mm 2 mps 771 mmHg 95%
    06:00 +9°C° 0 mm 2 mps 771 mmHg 95%
    07:00 +8°C° 0 mm 2 mps 771 mmHg 96%
    08:00 +12°C° 0 mm 2 mps 771 mmHg 87%
    09:00 +14°C° 0 mm 2 mps 770 mmHg 78%
    10:00 +16°C° 0 mm 2 mps 770 mmHg 70%
    11:00 +17°C° 0 mm 2 mps 769 mmHg 64%
    12:00 +19°C° 0 mm 2 mps 768 mmHg 58%
    13:00 +21°C° 0 mm 2 mps 767 mmHg 53%
    14:00 +20°C° 0 mm 2 mps 767 mmHg 56%
    15:00 +19°C° 0 mm 2 mps 766 mmHg 60%
    16:00 +19°C° 0 mm 2 mps 766 mmHg 63%
    17:00 +17°C° 0 mm 3 mps 766 mmHg 70%
    18:00 +14°C° 0 mm 4 mps 766 mmHg 76%
    19:00 +13°C° 0 mm 4 mps 766 mmHg 83%
    20:00 +12°C° 0 mm 4 mps 766 mmHg 85%
    21:00 +12°C° 0 mm 4 mps 766 mmHg 87%
    22:00 +11°C° 0 mm 3 mps 765 mmHg 90%
    23:00 +11°C° 0 mm 3 mps 765 mmHg 87%

    30 June, Sunday

    Time Temperature Precipitation Wind Pressure Humidity
    00:00 +11°C° 0 mm 3 mps 765 mmHg 84%
    01:00 +10°C° 0 mm 3 mps 764 mmHg 81%
    02:00 +10°C° 0 mm 4 mps 764 mmHg 78%
    03:00 +10°C° 0 mm 4 mps 764 mmHg 75%
    04:00 +10°C° 0 mm 4 mps 763 mmHg 71%
    05:00 +10°C° 0 mm 5 mps 764 mmHg 71%
    06:00 +12°C° 0 mm 5 mps 765 mmHg 70%
    07:00 +12°C° 0 mm 5 mps 765 mmHg 69%
    08:00 +13°C° 0 mm 5 mps 766 mmHg 65%
    09:00 +14°C° 0 mm 5 mps 766 mmHg 62%
    10:00 +17°C° 0 mm 4 mps 766 mmHg 58%
    11:00 +17°C° 0 mm 4 mps 766 mmHg 53%
    12:00 +18°C° 0 mm 4 mps 765 mmHg 48%
    13:00 +18°C° 0 mm 4 mps 765 mmHg 43%
    14:00 +18°C° 0 mm 3 mps 765 mmHg 45%
    15:00 +17°C° 0 mm 3 mps 765 mmHg 47%
    16:00 +17°C° 0 mm 2 mps 765 mmHg 49%
    17:00 +15°C° 0 mm 2 mps 765 mmHg 51%
    18:00 +13°C° 0 mm 2 mps 766 mmHg 53%
    19:00 +11°C° 0 mm 1 mps 766 mmHg 55%
    20:00 +9°C° 0 mm 2 mps 767 mmHg 58%
    21:00 +9°C° 0 mm 2 mps 767 mmHg 61%
    22:00 +8°C° 0 mm 3 mps 767 mmHg 63%
    23:00 +7°C° 0 mm 3 mps 767 mmHg 66%
    Show more